Tracking 19570 objects as of 22-Feb-2019
HD Live streaming from Space Station
objects crossing your sky now

GLOBALSTAR M044

Track GLOBALSTAR M044 now!
10-day predictions
GLOBALSTAR M044 is classified as:


NORAD ID: 25678
Int'l Code: 1999-019C
Perigee: 1,727.4 km
Apogee: 1,737.1 km
Inclination: 52.0 °
Period: 121.0 minutes
Semi major axis: 8103 km
RCS: 2.4818 m2 (large)
Launch date: April 15, 1999
Source: Globalstar (GLOB)
Launch site: TYURATAM MISSILE AND SPACE COMPLEX (TTMTR)
aabbcc
Your satellite tracking list
Your tracking list is empty




NASA's NSSDC Master Catalog

Two Line Element Set (TLE):
1 25678U 99019C   19052.30094280 -.00000078  00000-0  81713-4 0  9999
2 25678  51.9987  33.3687 0005985 268.4955 146.3401 11.90188666896496
Source of the keplerian elements: AFSPC